RH
99 91 95 96 92 75 69 71 65 66 68 64 64 62 60 61 64 68 70 80 91 91 94 95 83 80 78 74 70 66 66 66 68 70 69 71 72 73 75 76 72 78 85
98 99 99 92 82 80 65 67 58 62 65 64 65 66 66 62 63 67 68 79 78 84 89 96 96 97 96 88 80 70 66 65 70 76 77 78 80 80 80 81 79 78 80
99 100 99 94 82 80 67 61 59 60 63 64 63 64 66 66 66 69 70 70 80 75 79 88 92 86 90 97 98 95 90 85 81 83 84 87 88 88 85 86 86 84 84
99 99 99 89 82 79 76 64 60 60 61 64 62 64 66 69 68 69 72 74 78 78 80 75 80 86 90 90 83 93 84 80 88 89 91 94 94 93 86 94 95 91 93
98 97 97 88 83 82 77 66 57 56 59 62 62 64 66 67 71 71 72 74 76 82 79 82 74 75 76 78 79 80 77 80 79 79 83 90 86 80 78 79 82 81 85
99 97 99 94 86 84 76 66 55 55 56 59 63 65 67 69 71 74 72 74 75 82 85 84 83 81 75 74 75 80 79 81 84 82 82 81 82 81 82 88 87 82 77
100 100 98 98 93 86 78 68 57 55 58 59 62 63 68 71 73 73 75 73 72 80 81 82 84 85 85 73 74 80 85 93 91 91 89 88 85 86 84 87 95 94 78
100 100 100 100 98 86 81 74 60 56 56 64 62 56 59 61 69 69 67 68 69 75 81 84 88 90 89 93 93 81 84 86 94 96 97 84 84 85 84 89 94 92 85
98 100 100 100 100 94 88 79 67 60 58 63 63 56 56 58 51 64 70 72 77 82 85 89 88 92 91 94 89 85 88 89 90 99 98 86 87 95 93 96 89 96 87
99 100 100 100 99 100 95 88 75 67 59 63 72 67 62 59 64 68 74 75 80 82 88 88 80 92 90 97 97 96 89 88 91 93 99 95 91 86 94 94 97 100 87
99 100 100 100 100 100 99 93 84 74 66 61 74 72 74 74 70 64 68 87 92 93 92 91 92 96 96 91 94 84 86 88 85 86 96 99 100 95 95 94 96 99 97
92 99 100 99 100 100 100 97 90 90 75 67 66 70 73 75 74 78 75 82 80 86 94 95 96 96 97 92 87 79 82 80 79 77 80 82 98 96 95 92 93 98 96
79 95 97 100 100 99 100 100 98 94 87 79 73 75 75 76 69 78 68 61 76 81 92 96 97 95 95 94 88 76 76 75 76 76 80 100 89 83 76 88 92 96 93
62 79 89 98 98 100 100 100 99 98 96 88 79 81 82 83 79 74 74 69 71 73 87 86 95 97 97 88 86 77 83 80 80 79 70 94 64 62 74 88 94 98 99
57 61 82 96 99 98 100 100 100 100 100 96 91 84 85 83 82 83 78 70 69 71 69 79 91 78 89 88 86 81 81 77 76 72 71 66 62 54 71 89 93 92 88
60 62 69 83 97 100 100 100 100 100 100 99 95 90 85 82 83 88 88 80 77 72 76 66 79 82 88 94 93 88 84 86 79 77 69 60 69 68 70 81 86 87 85
60 69 71 73 82 98 99 100 100 100 100 99 99 95 86 77 80 83 92 90 86 83 80 71 82 88 86 83 95 98 100 98 92 87 76 72 85 89 84 86 90 96 93
61 61 72 71 71 72 93 99 100 100 99 99 95 94 85 82 89 87 94 94 94 88 89 80 89 92 89 88 88 90 98 98 97 96 82 84 87 89 85 91 91 94 95
56 56 61 64 69 74 80 92 100 100 100 99 95 91 93 90 94 97 98 100 98 92 74 98 91 96 98 97 100 100 100 96 99 92 84 78 78 88 90 90 89 89 87
62 56 60 66 72 75 80 87 98 100 100 98 100 97 96 95 97 98 94 75 80 85 95 100 99 99 96 98 100 100 100 97 96 94 89 80 68 73 84 92 96 91 89
69 67 67 72 78 83 88 92 97 100 100 100 100 100 100 100 97 97 96 94 94 98 100 100 100 100 100 100 99 97 100 100 100 96 94 84 74 68 78 86 95 92 90
87 97 90 84 92 96 98 96 99 100 100 100 100 100 100 98 93 91 96 100 97 100 100 99 98 98 97 99 100 99 100 100 98 98 100 91 85 85 92 95 99 92 100
98 98 100 100 100 100 100 96 99 99 92 96 98 97 92 88 89 99 100 100 99 95 100 100 100 99 98 95 98 100 100 98 94 92 98 96 89 82 87 98 83 96 99
98 100 100 100 100 100 100 100 100 100 100 100 100 99 99 99 100 100 100 97 98 99 99 98 99 98 97 97 98 99 100 100 100 97 93 97 94 93 92 98 92 99 99
100 100 100 100 99 100 100 98 96 98 98 99 99 99 99 100 99 99 100 100 100 99 98 91 91 92 93 90 90 99 100 100 99 100 100 97 97 94 95 94 92 98 100
96 97 99 98 99 94 87 86 86 90 91 92 91 92 93 92 92 97 98 99 100 100 100 100 100 100 96 92 84 82 88 98 99 100 97 99 100 96 98 95 97 93 99
Wind_Speed
21 19 18 19 18 17 17 17 15 14 13 11 10 9 9 9 9 8 8 11 10 8 7 6 5 5 4 4 3 2 2 2 3 2 2 3 3 4 5 5 5 5 6
23 21 20 21 20 18 18 18 17 16 14 13 12 10 9 9 9 8 8 9 11 10 8 7 7 6 6 6 6 5 5 5 6 6 4 5 5 5 6 6 6 6 6
25 24 21 21 21 20 19 18 18 17 16 14 13 12 11 10 9 9 8 8 9 11 11 10 9 8 8 9 10 11 11 11 10 10 8 8 7 8 8 8 7 7 7
27 26 24 23 22 21 21 20 20 19 18 16 14 13 12 11 11 10 9 9 9 8 11 12 12 13 11 10 8 6 7 8 12 13 12 10 9 9 9 10 8 9 8
30 28 27 25 23 23 22 21 21 20 19 17 16 14 13 13 13 12 11 11 11 11 10 12 13 13 12 11 10 9 7 8 9 9 9 10 9 8 7 6 6 7 7
32 32 28 25 24 23 22 22 22 21 20 18 15 14 13 13 14 14 14 13 13 12 12 12 12 12 13 12 12 11 9 8 7 7 7 7 7 7 5 6 6 6 6
33 37 29 31 27 26 26 25 24 24 22 20 16 14 13 13 14 16 15 15 14 14 14 14 13 12 11 14 12 12 10 9 10 9 8 9 7 6 5 7 7 7 7
37 39 33 33 33 28 28 27 26 22 22 23 17 15 7 13 18 17 16 16 16 14 15 15 14 15 12 9 11 14 14 14 12 11 9 8 7 6 7 7 8 7 6
39 38 38 37 36 31 28 30 30 28 25 24 25 13 5 7 12 16 20 18 17 16 15 15 16 15 14 12 15 16 16 16 15 12 12 8 8 8 8 9 9 8 7
37 40 38 39 39 37 29 30 32 30 26 25 24 26 13 5 6 5 13 19 18 18 16 18 19 17 17 14 15 16 17 16 15 14 12 13 13 13 11 11 11 11 8
34 37 41 40 38 36 34 31 31 31 31 28 26 23 23 13 10 6 4 7 15 17 17 18 19 16 17 18 17 19 19 17 16 16 14 13 13 14 14 13 12 13 11
32 31 31 34 37 40 35 41 40 35 33 30 25 26 24 21 17 9 5 5 11 12 19 18 19 17 17 19 20 21 20 19 19 18 18 16 15 16 15 13 12 16 14
27 28 32 36 35 40 39 35 38 41 40 35 34 31 28 27 23 16 17 11 7 9 10 17 21 23 21 20 21 23 23 22 21 20 19 14 17 15 14 14 14 17 16
29 25 31 33 36 36 36 37 36 38 36 37 38 35 33 30 25 26 20 15 6 9 11 12 17 23 23 25 24 25 24 24 23 21 20 19 21 19 16 15 16 17 16
30 29 30 33 34 33 36 36 35 37 38 39 37 36 35 32 28 31 30 27 20 11 9 10 15 24 28 28 28 28 26 25 25 24 22 23 22 22 19 18 19 18 17
30 31 30 31 32 34 34 35 33 34 33 32 34 35 37 34 32 29 31 29 28 26 13 19 22 19 21 27 27 28 27 26 27 27 24 23 22 20 19 20 19 19 19
30 30 31 29 30 30 32 31 33 31 33 33 32 35 36 36 34 31 29 28 29 27 20 26 19 22 22 24 30 27 24 27 22 24 24 21 21 21 19 19 19 19 19
28 27 28 27 28 28 30 33 33 30 31 31 32 32 35 34 34 34 30 30 29 30 28 24 21 23 26 28 33 33 34 27 20 21 21 21 22 23 20 20 18 19 19
28 26 26 27 28 29 29 29 31 33 32 33 33 33 32 33 33 31 33 29 28 31 34 23 18 21 26 27 30 32 31 29 29 26 24 23 24 26 26 24 21 19 19
23 24 26 28 30 30 30 29 30 31 30 32 31 35 35 37 34 28 28 28 33 34 26 26 21 22 26 30 29 28 30 37 36 31 30 29 26 27 28 27 23 22 21
23 26 27 29 30 30 29 30 31 31 30 30 33 31 26 23 19 24 26 29 31 25 22 21 20 17 20 17 28 34 28 25 35 38 34 31 28 25 25 28 25 24 22
17 17 20 21 22 25 25 27 34 24 23 19 11 8 11 12 11 16 24 25 22 28 23 24 23 21 28 30 28 32 29 19 8 36 36 31 25 23 21 22 21 24 23
14 6 16 20 14 16 10 9 12 12 10 6 4 7 8 13 14 17 18 18 22 23 27 28 26 28 29 32 36 30 30 27 25 25 31 19 25 27 22 20 23 22 24
27 27 33 30 27 22 14 13 14 13 11 10 4 1 2 4 6 9 12 16 20 22 26 28 28 32 26 23 20 21 23 21 16 20 22 8 16 16 15 17 20 24 25
33 31 31 31 32 27 22 18 16 17 18 16 12 11 8 8 8 7 8 10 11 12 14 15 15 17 18 18 13 16 14 12 2 3 17 7 10 11 14 15 16 25 26
29 25 26 27 26 27 24 21 18 17 17 15 12 10 9 7 4 5 6 7 9 9 10 8 10 10 11 12 11 14 18 22 8 6 16 15 12 12 6 11 16 18 22
Wind_Direction
195 195 191 189 194 197 198 197 199 197 194 193 192 191 193 192 186 181 184 189 186 194 188 188 188 191 200 210 216 218 235 245 256 266 308 317 321 334 344 343 342 357 8
200 197 197 197 201 201 199 201 197 199 198 197 200 200 202 202 203 201 195 204 200 203 205 206 215 220 229 237 247 253 254 250 259 264 278 285 299 312 316 315 320 334 341
199 198 202 202 205 205 201 201 203 199 200 200 204 205 203 208 209 210 214 211 219 217 218 213 222 236 245 248 251 259 264 267 263 267 269 271 287 294 307 302 310 317 317
205 204 204 206 207 207 205 203 201 205 205 202 203 206 211 212 215 218 222 225 224 227 237 232 225 232 243 251 251 256 268 271 264 258 259 265 275 287 293 293 295 297 303
207 208 207 207 205 207 206 205 205 206 210 211 209 208 213 219 219 223 226 234 232 229 235 247 240 243 247 250 252 251 261 264 260 248 249 254 258 272 282 304 306 306 303
209 209 207 207 205 206 207 204 207 204 210 214 214 217 220 219 219 224 229 233 239 239 236 238 248 249 250 251 251 247 247 248 240 245 243 238 258 263 271 287 304 313 320
212 206 208 211 204 207 208 204 204 205 204 209 209 218 229 232 228 226 227 228 234 239 239 239 241 243 250 247 243 238 236 238 249 246 245 260 258 256 261 278 291 287 301
209 207 208 207 203 210 211 206 202 203 208 202 202 210 218 223 234 230 227 227 229 233 236 236 235 239 235 236 234 236 233 231 236 248 247 245 255 260 270 278 284 276 276
217 212 208 209 207 206 209 206 201 202 202 204 208 197 210 233 218 221 224 225 225 227 232 234 235 234 230 232 242 240 236 238 238 229 236 217 235 264 275 272 273 246 255
217 214 215 210 207 210 207 205 202 202 203 205 207 217 232 228 210 199 222 225 225 228 226 229 233 232 232 233 238 235 241 236 235 239 233 235 235 243 269 275 263 230 247
222 216 212 211 210 207 208 205 201 206 205 209 203 211 220 229 236 257 214 213 228 233 229 228 232 231 232 232 235 238 237 231 234 239 244 245 255 256 258 263 263 232 234
223 220 212 211 211 213 209 216 219 213 210 210 214 216 213 213 221 214 233 217 225 225 229 229 230 229 228 231 231 236 234 232 234 239 247 256 255 254 252 249 255 230 232
220 221 217 214 207 212 214 216 217 218 216 211 212 217 218 218 221 225 236 237 240 219 219 231 230 227 228 229 232 236 236 237 237 237 242 236 241 246 249 243 226 227 245
226 221 221 221 219 212 210 214 217 216 214 212 213 219 218 219 220 224 222 226 239 234 232 234 233 229 230 232 234 238 238 238 239 238 232 236 252 255 241 237 233 237 254
234 225 219 220 224 221 211 211 213 217 218 218 216 220 222 226 226 232 231 232 229 249 239 243 227 240 233 232 234 234 230 238 234 233 237 248 254 258 242 238 242 250 256
234 231 223 220 220 222 221 213 213 217 215 218 216 219 223 225 229 232 234 232 230 239 250 248 239 241 236 232 235 231 230 232 234 237 239 247 244 249 244 240 242 245 251
223 230 226 219 222 221 223 215 213 217 219 222 219 221 223 228 232 235 235 234 235 233 244 246 245 240 237 241 236 233 228 233 235 241 242 242 241 244 243 244 239 250 251
222 221 231 232 228 227 226 226 222 217 224 222 222 223 225 224 229 230 234 234 233 235 232 242 237 233 236 234 237 230 229 234 232 240 237 240 243 246 245 245 240 241 249
213 217 229 235 235 231 227 226 225 225 223 224 224 224 226 225 228 223 228 234 235 250 248 233 244 237 239 235 227 229 226 233 239 239 246 241 245 246 246 243 240 241 241
226 222 228 232 235 237 236 232 227 227 226 230 227 226 223 223 226 226 240 257 261 255 239 224 225 229 229 231 227 222 224 228 233 236 244 247 243 243 246 243 239 241 240
229 231 237 238 236 233 230 230 227 227 228 229 231 227 224 224 240 248 246 248 246 247 229 229 231 221 216 208 210 223 227 229 227 227 231 241 241 240 242 238 235 237 237
229 228 232 232 229 227 233 233 231 224 227 222 195 208 234 226 267 285 264 246 259 237 244 237 238 229 233 230 229 218 217 202 221 226 224 230 231 233 233 230 231 233 228
136 118 140 146 120 136 139 130 137 150 158 155 219 233 267 273 267 252 264 269 269 271 261 248 241 233 238 236 231 218 215 221 222 209 204 210 223 231 236 231 229 223 224
97 78 81 88 89 85 121 149 156 147 124 103 96 96 312 312 309 301 295 281 277 271 266 261 260 262 260 269 247 238 237 217 192 190 183 186 207 208 218 224 224 218 220
82 79 78 76 74 70 76 87 95 87 79 75 69 56 53 41 23 356 330 306 283 273 268 272 273 272 265 250 226 219 202 184 13 202 201 176 207 198 217 220 222 220 219
77 74 71 69 70 69 69 74 78 79 75 71 66 59 48 40 12 3 352 332 301 305 291 276 249 231 217 218 221 207 192 181 173 198 219 199 195 193 204 226 215 217 217